FENGYUN 1C DEB, 29957

Orbit data source: Space-Track

FENGYUN 1C DEB, 29957 is space debris in SSO originally from a launch on Mon, 10 May 1999 UTC launched from the Taiyaun Space Center, China (TSC). Fengyun 1C debris stems from the Chinese weather satellite Fengyun-1C, which was intentionally destroyed by a Chinese anti-satellite missile in 2007. This event dramatically increased the amount of space debris, with thousands of trackable fragments posing hazards to satellites and human spaceflight. The Fengyun 1C debris cloud has become a focal point in discussions about space sustainability and the need for international regulations to prevent the creation of new debris.

Loading next visibility...
Identifier
29957, 1999-025KF
Orbit
SSO
Country
Flag of CNCN / PRC
Related business
Manufacturer
Unknown
Mission
Spacecraft
Bus & Motor
Unknown
Mass
Unknown
Launch date (UTC)
1999-05-10 (27 years ago)
Launch vehicle
Unknown
Launch site
Taiyaun Space Center, China (TSC)
Object type
Payload
Rocket body
Debris
Shape & HBR
Sphere, Unknown HBR
Radar Cross Section
0.031 m², Medium (>0.1 m² and < 1m²)

Expand to show TLE details & history
Last TLE update: 1 week ago

TLE from 1 week ago
0 FENGYUN 1C DEB
1 29957U 99025KF  26153.33988704  .00014826  00000-0  32624-2 0  9996
2 29957  98.9224 296.6002 0031581  19.5602  48.3117 14.57256557999866
Epoch: 2026-06-02T08:09Z
TLE epoch observation values (Epoch: 2026-06-02T08:09:26.240Z)
Latitude
66.56223°
Longitude
-97.6855°
Altitude
698.683 km
Speed
7.521 km/s
True Right ascension
18h 21m 57s
True Declination
66° 26' 07"
Sunlit
Object was in daylight at epoch
Visualization orbit readout
Latitude
Unknown
Longitude
Unknown
Altitude
Unknown
Speed
Unknown
Apparent Right ascension
Unknown
Apparent Declination
Unknown
Sunlit
N/A
Visualization observer readout
Local Sidereal Time
01:27:44
Azimuth
Unknown
Elevation
Unknown
Doppler factor
Unknown
Orbital elements
Apogee altitude
721.516 km
Perigee altitude
676.815 km
Semi-major axis
7,077.303 km
Eccentricity
0.00316
Inclination
98.9224°
RAAN
296.6002°
Arg. of periapsis
19.5602°
True anomaly
48.58266°
Mean anomaly
48.3117°
Eccentric anomaly
48.44711°
Mean motion
3.64537 °/min
Orbital period
98.76 mins
BSTAR
0.0032624
Loading maneuver chart data...
Computing Atmospheric mass density...
Loading historical data...
Loading historical data...
Loading historical data...
Loading historical data...
Loading historical data...
Loading historical data...
Loading historical data...

Documentation

Showing up to 5 results
|